Regional Weather Roundup
Issued by NWS

Home | Current Version | Previous Version | Text Only | Print | Product List | Glossary On
Versions: 1 2 3 4 5 6 7 8 9 10 11 12 13 14 15 16 17 18 19 20 21 22 23 24 25 26 27 28 29 30 31 32 33 34 35 36 37 38 39 40 41 42 43 44 45 46 47 48 49 50
000
ASUS43 KMPX 061110
RWRMN
WEATHER ROUNDUP FOR MINNESOTA
NATIONAL WEATHER SERVICE TWIN CITIES/CHANHASSEN MN
600 AM CDT MON JUL 06 2015


NOTE: "FAIR" INDICATES FEW OR NO CLOUDS BELOW 12,000 FEET WITH NO
SIGNIFICANT WEATHER AND/OR OBSTRUCTIONS TO VISIBILITY. N/A MEANS
CURRENT SKY AND/OR WEATHER CONDITIONS ARE NOT AVAILABLE.

MNZ060>063-068>070-061200-
   Twin Cities Metro

CITY           SKY/WX    TMP DP  RH WIND       PRES   REMARKS
TWIN CITIES    HVY RAIN  69  68  96 SE13      29.83R FOG
ST PAUL        HVY RAIN  69  68  96 SE10      29.84R FOG
CRYSTAL        LGT RAIN  70  67  90 SE13      29.80R
BLAINE         HVY RAIN  70  70 100 SE14      29.81R
LAKEVILLE      RAIN      70  68  94 W3        29.85R
EDEN PRAIRIE   RAIN      70  68  93 SE9       29.82R FOG
SOUTH ST PAUL  RAIN      69  68  96 E9        29.85R
LAKE ELMO      RAIN      68  68 100 E5        29.85S
$$
MNZ001>005-007-008-013>017-022>024-027-028-061200-
   Northwest Minnesota

CITY           SKY/WX    TMP DP  RH WIND       PRES   REMARKS
BEMIDJI        CLOUDY    61  60  94 N7        29.93R FOG
HALLOCK        PTCLDY    52  48  87 N10       30.02S
ROSEAU         MOCLDY    54  48  82 NW9       29.99R
WARROAD        MOCLDY    52  48  87 NW7       29.98S
THIEF RVR FALL CLOUDY    55  50  82 N14       29.98R
CROOKSTON      CLOUDY    57  54  88 N8        30.00R FOG
FOSSTON        CLOUDY    55  52  88 N13G20    29.97R FOG
DETROIT LAKES    N/A     63  61  94 N6        29.95R FOG
MOORHEAD       CLOUDY    63  59  88 N13G20    29.96R FOG
PARK RAPIDS    CLOUDY    66  60  81 N10       29.91R HAZE
MAHNOMEN       CLOUDY    60  57  91 N15       29.95R FOG
$$
MNZ006-009>011-018-025>026-061200-
   North Central Minnesota

CITY           SKY/WX    TMP DP  RH WIND       PRES   REMARKS
BAUDETTE       CLOUDY    57  50  77 NW16      29.93R
FLAG ISLAND    PTCLDY    54  46  76 NW21      29.95S
INTL FALLS     FOG       57  56  96 NW8       29.90R VSB 1
WASKISH        MOCLDY    57  55  94 NW7       29.94R FOG
BIG FORK         N/A     61  59  94 N5        29.90R FOG
LONGVILLE      LGT RAIN  63  61  94 N7        29.90R
GRAND RAPIDS   CLOUDY    61  57  88 N6        29.90R
CRANE LAKE     CLOUDY    55  54  94 W1        29.90R
COOK           CLOUDY    57  57 100 CALM      29.89R FOG
WALKER         CLOUDY    62  60  94 NW6       29.91S FOG
$$
MNZ012-019>021-037-061200-
   Northeast Minnesota

CITY           SKY/WX    TMP DP  RH WIND       PRES   REMARKS
DULUTH         LGT RAIN  67  64  90 N6        29.85R FOG
ELY            CLOUDY    59  57  94 CALM      29.88R FOG
HIBBING        CLOUDY    61  57  87 N7        29.88R
DULUTH HARBOR  DRIZZLE   66  66 100 CALM      29.84R
TWO HARBORS    CLOUDY    68  63  83 NE6       29.83R
SILVER BAY     CLOUDY    64  61  88 N3        29.83R FOG
GRAND MARAIS     N/A     62  58  86 CALM      29.81R
G MARAIS ARPRT CLOUDY    59  55  88 NW7       29.86R FOG
$$
MNZ029>031-032-039>041-046>048-054>057-064-061200-
   West Central Minnesota

CITY           SKY/WX    TMP DP  RH WIND       PRES   REMARKS
FERGUS FALLS   CLOUDY    64  63  94 N8        29.92S FOG
WHEATON        LGT RAIN  63  61  94 NW10      29.92F
MORRIS         CLOUDY    66  66 100 N13       29.88S FOG
ALEXANDRIA     CLOUDY    67  62  84 N13       29.91R
ELBOW LAKE     LGT RAIN  65  64  94 N7        29.90F
WADENA         LGT RAIN  64  61  88 N6        29.91R
GLENWOOD       CLOUDY    66  63  88 N10       29.89R
APPLETON       CLOUDY    70  64  83 N15       29.86S
BENSON         CLOUDY    68  64  88 N10       29.86R
ORTONVILLE     CLOUDY    66  63  88 N15       29.88S FOG
MADISON        CLOUDY    66  64  94 N16       29.86S FOG
WILLMAR        CLOUDY    70  68  94 N9        29.84R
$$
MNZ033>034-036-042>043-049>051-058-059-061200-
   Central Minnesota

CITY           SKY/WX    TMP DP  RH WIND       PRES   REMARKS
ST CLOUD       LGT RAIN  69  68  96 N6        29.80S
SAUK CENTRE    DRIZZLE   66  64  91 N9        29.86R
PAYNESVILLE    LGT RAIN  65  65 100 NW7       29.83R
AITKIN         LGT RAIN  63  57  82 N3        29.85S
PINE RIVER     CLOUDY    64  57  77 N5        29.92R
BRAINERD       LGT RAIN  64  61  90 N7        29.87R FOG
STAPLES        LGT RAIN  64  61  88 N7        29.90R
LONG PRAIRIE   CLOUDY    63  61  94 NW7       29.88R
LITTLE FALLS   LGT RAIN  63  63 100 N5        29.85R
LITCHFIELD     LGT RAIN  72  72 100 N3        29.81R
BUFFALO        LGT RAIN  69  67  93 SE6       29.81R
MAPLE LAKE     LGT RAIN  70  69  97 CALM      29.82R
$$
MNZ037-044-045-052-053-061200-
   East Central Minnesota

CITY           SKY/WX    TMP DP  RH WIND       PRES   REMARKS
PRINCETON      LGT RAIN  70  68  94 CALM      29.81R
MORA           LGT RAIN  64  64 100 CALM      29.83F
CAMBRIDGE      RAIN      70  63  78 E3        29.78S
RUSH CITY      LGT RAIN  67  66  95 CALM      29.81S
MOOSE LAKE     RAIN      64  64 100 N5        29.82F
HINCKLEY       DRIZZLE   68  68 100 CALM      29.81F
CLOQUET        LGT RAIN  64  63  94 N5        29.85R
MCGREGOR       CLOUDY    63  61  94 CALM      29.87R
$$
MNZ071>073-080-081-089-090-097-098-061200-
   Southwest Minnesota

CITY           SKY/WX    TMP DP  RH WIND       PRES   REMARKS
GRANITE FALLS  CLOUDY    69  67  96 NW13      29.86R
CANBY          CLOUDY    67  65  94 N12G20    29.87S FOG
MARSHALL       CLOUDY    68  63  83 N15       29.82F
REDWOOD FALLS  LGT RAIN  70  69  97 W8        29.83R
OLIVIA         LGT RAIN  68  64  88 W5        29.82R
PIPESTONE      LGT RAIN  68  66  94 NE13G20   29.80F
WINDOM         LGT RAIN  70  68  94 CALM      29.84S
WORTHINGTON    CLOUDY    68  64  88 NE7       29.84F
JACKSON        LGT RAIN  70  70 100 S8        29.86S
TRACY          LGT RAIN  69  69  98 N8G16     29.84S
SLAYTON        LGT RAIN  68  68 100 N5        29.85R
$$
MNZ065>067-074>077-082>085-091>093-061200-
   South Central Minnesota

CITY           SKY/WX    TMP DP  RH WIND       PRES   REMARKS
MANKATO        CLOUDY    70  68  94 SE7       29.81F
NEW ULM        HVY RAIN  70  70 100 S6        29.81R
ST JAMES       RAIN      72  70  94 CALM      29.83R
FAIRMONT       CLOUDY    70  64  83 S9        29.83F
GLENCOE        LGT RAIN  70  70  99 E12       29.80S
FARIBAULT      CLOUDY    70  70 100 SW5       29.82S
OWATONNA       RAIN      72  70  94 CALM      29.82F
WASECA         HVY RAIN  72  68  88 SW12G20   29.84R
ALBERT LEA     LGT RAIN  72  70  94 SW5       29.84F
$$
MNZ078>079-086>088-094>096-061200-
   Southeast Minnesota

CITY           SKY/WX    TMP DP  RH WIND       PRES   REMARKS
ROCHESTER      LGT RAIN  73  70  90 W9        29.85S
RED WING       HVY RAIN  72  70  94 W5        29.81S
STANTON        CLOUDY    70  64  83 CALM      29.82R
DODGE CENTER   LGT RAIN  72  70  94 SW7       29.86S
WINONA         CLOUDY    73  68  83 CALM      29.82R
AUSTIN         TSTM      72  70  94 CALM      29.80F
PRESTON        LGT RAIN  70  67  90 SW9       29.84F
$$
ABBREVIATIONS USED IN REMARKS
   TC - TEMPERATURES IN CELSIUS
  WCI - WIND CHILL INDEX
   HX - HEAT INDEX
  VSB - VISIBILITY
$$


USA.gov is the U.S. government's official web portal to all federal, state and local government web resources and services.